Location: Ergnies
(50.0854°N, 2.0375°E)
Time: 09:42:58
(UTC+00:00)

Okean 1-7 - Pass Details

Date: 14 January 2026
Orbit: 566 x 588 km, 82.5° (Epoch: 17 February)

Event Time Altitude Azimuth Distance (km) Brightness Sun altitude
Exits shadow 06:10:09 - 351° (N) 2,818 6.2 -14.7°
Rises 06:10:14 0° 351° (N) 2,782 6.2 -14.7°
Reaches altitude 10° 06:12:26 10° 355° (N) 1,882 5.3 -14.4°
Maximum altitude 06:16:34 68° 78° (ENE) 621 3.2 -13.7°
Drops below altitude 10° 06:20:41 10° 162° (SSE) 1,876 6.0 -13.1°
Sets 06:22:53 0° 165° (SSE) 2,773 6.9 -12.8°
